Wind_Speed
26 25 24 24 25 25 24 22 20 19 17 16 16 16 17 17 17 17 18 19 20 20 20 20 19 18 17 16 15 14 13 12 12 12 11 11 11 11 12 12 12 12 11 11 10 10 10 10 10 10 9 9 9 9 8 7 6 6 6 6 6 6 6
21 22 23 24 24 25 26 24 23 22 20 19 19 18 17 17 18 18 19 19 20 21 21 20 20 19 19 18 17 16 15 14 13 13 12 12 13 13 13 13 13 12 12 11 11 11 10 10 10 10 10 9 9 9 8 8 7 7 6 5 5 5 5
16 17 19 21 24 26 27 27 26 24 23 22 21 20 18 18 19 20 21 21 21 22 21 21 20 20 19 18 18 17 16 15 15 15 14 14 14 14 14 13 13 13 13 13 12 12 12 11 11 10 10 10 10 9 9 8 8 8 7 7 6 6 6
16 16 17 19 23 28 30 30 29 27 26 24 23 22 21 21 21 22 22 22 22 22 23 22 22 21 20 19 19 19 18 17 17 16 16 15 14 14 14 14 14 14 14 14 14 14 14 13 12 11 11 10 10 10 10 9 9 9 8 8 8 8 7
17 18 18 18 22 29 34 34 33 30 28 27 26 24 24 24 24 23 23 23 23 23 24 24 23 22 21 20 20 19 18 18 18 17 16 16 15 14 14 14 14 14 15 14 14 15 15 14 13 12 11 11 10 10 9 10 10 9 9 9 9 9 8
17 19 20 20 23 30 36 37 35 33 31 29 28 27 27 26 25 24 23 23 23 23 24 24 23 22 21 20 20 19 19 18 18 18 17 16 16 16 16 15 14 14 14 15 15 15 15 14 13 12 12 11 10 9 9 9 9 9 9 9 9 8 8
16 18 19 21 25 30 36 39 38 35 33 32 31 30 29 28 27 25 24 23 23 23 23 23 22 22 22 22 21 20 20 20 20 19 18 17 17 17 16 15 15 15 14 14 14 14 14 14 13 12 12 11 10 9 9 9 9 9 9 9 9 9 9
15 17 18 21 25 30 35 38 38 36 35 34 33 32 31 30 28 27 25 24 23 23 23 23 23 24 24 24 23 23 22 22 22 21 20 19 19 19 17 16 16 15 15 15 14 14 14 14 13 12 12 11 10 10 10 9 9 8 9 9 9 9 9
17 17 18 21 25 30 35 38 37 35 34 33 32 31 30 29 28 27 26 25 24 24 23 23 24 25 25 25 25 25 25 24 24 23 23 22 21 21 19 18 17 16 16 16 15 14 14 14 13 13 12 12 11 11 10 10 10 9 9 9 9 9 9
17 18 20 21 24 27 32 35 34 33 32 31 30 29 27 25 24 24 24 24 24 24 24 24 25 26 26 26 26 27 26 26 26 25 24 24 23 23 21 20 19 18 18 17 16 16 15 15 15 14 13 13 12 11 11 11 10 10 9 9 9 9 9
17 20 22 21 23 25 28 31 32 31 31 31 30 29 28 27 25 24 23 22 22 22 23 23 24 25 26 27 27 27 28 28 27 27 26 26 26 26 24 23 22 21 20 19 18 18 17 17 16 16 15 15 14 13 12 12 11 10 10 10 10 10 10
19 22 23 20 21 23 25 27 29 31 32 33 33 32 31 31 30 28 27 26 25 24 24 23 24 24 25 26 27 28 29 30 30 30 30 29 29 29 28 26 25 24 23 22 22 21 20 19 19 18 18 17 16 15 14 14 13 12 12 11 11 12 12
22 23 24 22 21 22 23 24 26 28 31 33 35 36 36 34 32 31 31 31 31 30 28 28 27 26 25 25 26 28 29 30 31 32 33 33 33 32 31 30 28 27 27 26 25 24 23 23 22 22 21 20 18 18 17 16 16 15 14 14 14 14 13
26 26 25 25 25 23 23 25 26 28 29 30 32 36 39 38 36 35 35 35 35 34 31 30 30 29 28 28 27 28 29 31 32 33 34 35 35 34 33 32 31 30 30 29 28 27 26 26 25 25 24 22 21 20 19 19 19 18 18 17 16 16 16
27 28 27 27 26 25 25 26 27 28 28 28 29 32 37 40 40 40 40 39 37 36 34 33 32 32 33 32 31 30 30 31 33 34 35 35 35 35 34 33 33 32 32 31 30 29 29 28 28 28 27 25 24 23 22 22 22 22 21 20 20 19 19
25 27 28 28 26 25 25 24 24 27 27 26 25 25 29 34 38 39 41 41 40 37 36 36 35 35 35 35 36 36 33 33 33 34 35 35 34 34 34 34 34 34 33 33 32 31 31 30 30 29 29 28 27 26 25 25 25 25 25 24 23 22 21
24 26 27 27 27 26 25 23 23 26 27 26 25 24 23 25 28 30 33 38 39 37 37 38 38 37 37 38 41 40 36 34 35 34 34 34 34 34 35 35 35 34 34 33 33 33 32 31 31 31 30 30 30 29 28 28 28 28 27 26 25 24 23
26 26 27 26 26 27 27 24 22 23 24 24 24 24 24 23 23 24 25 29 33 34 35 38 40 40 40 40 42 43 40 38 38 37 36 34 33 33 34 35 35 34 34 35 35 35 34 33 32 32 32 32 31 30 30 30 30 29 28 28 27 26 25
29 29 29 27 25 26 26 25 22 21 22 22 22 23 23 23 23 23 23 25 27 29 32 36 39 41 41 41 42 44 44 43 42 39 37 35 33 32 33 33 33 33 34 35 36 36 36 35 34 33 33 33 32 31 31 31 31 31 29 29 29 28 28
30 31 32 30 27 26 26 25 23 21 21 22 22 21 23 24 24 24 24 24 25 27 30 34 37 38 39 42 44 44 45 46 44 40 38 36 34 34 34 33 32 33 35 36 35 34 34 34 34 34 35 35 34 33 33 32 33 32 31 31 31 31 30
29 31 33 32 30 28 27 27 24 21 20 21 22 22 22 22 22 22 24 25 27 29 30 32 35 36 37 41 44 44 44 45 44 41 41 40 37 35 34 33 33 35 36 36 35 33 32 31 32 35 36 36 35 35 34 34 34 34 33 33 33 32 31
29 31 33 33 32 30 30 29 28 25 22 21 21 22 22 21 20 20 19 20 24 28 29 30 32 33 34 39 43 43 43 44 43 41 42 42 40 37 36 36 36 37 37 37 36 34 31 29 30 34 37 36 34 34 34 35 35 34 34 34 33 32 31
30 31 32 33 32 31 31 30 29 28 27 25 23 23 23 22 23 24 22 19 20 24 25 26 29 30 30 34 40 44 44 43 41 40 41 43 42 39 38 38 38 37 38 39 38 36 33 30 30 34 38 37 33 32 33 34 34 33 33 32 32 31 30
32 31 31 31 31 29 30 30 29 28 28 28 27 26 25 25 25 27 27 24 23 24 23 22 24 25 27 29 32 37 39 39 39 40 42 43 42 39 38 38 38 37 38 40 40 38 36 35 35 37 38 37 34 32 32 32 32 32 32 32 31 30 30
35 33 31 31 30 28 28 29 29 28 27 27 28 28 28 28 27 27 26 26 26 27 26 23 20 19 22 26 27 29 31 32 34 38 42 42 40 37 37 38 38 37 36 38 40 41 40 39 39 39 39 39 37 35 32 32 33 33 32 32 32 31 30
38 37 35 34 34 33 31 31 30 29 28 27 27 27 28 28 27 26 27 27 27 26 25 25 23 20 19 19 22 25 27 28 31 35 39 41 40 38 38 39 40 39 38 38 41 43 43 43 42 42 41 40 38 36 34 34 34 34 34 34 33 33 32
41 41 41 39 37 36 35 35 34 33 32 29 28 27 28 28 27 25 25 27 27 27 25 24 25 24 21 17 16 17 20 23 24 26 29 31 32 34 35 36 36 36 35 36 37 40 44 46 46 45 43 40 39 38 37 37 36 36 36 36 36 35 35
43 42 41 39 36 34 33 33 34 36 36 34 32 30 29 30 29 26 24 24 25 27 26 25 24 24 23 21 19 17 16 16 17 18 20 21 23 26 28 29 29 27 26 27 28 29 33 37 40 41 39 38 37 36 37 37 38 39 39 38 38 38 38
43 42 40 38 35 32 30 28 29 32 35 37 36 34 32 32 32 30 28 26 25 25 25 25 25 25 25 25 25 24 21 19 17 17 17 18 19 21 22 24 25 23 21 21 22 22 22 25 28 30 31 30 31 31 32 33 35 36 37 38 38 38 38
40 38 36 34 33 31 29 27 25 26 29 33 35 35 34 32 32 33 31 29 28 26 26 25 25 26 28 28 29 28 26 24 22 21 22 21 20 20 19 19 20 19 18 17 18 18 18 20 22 24 26 27 27 27 27 26 27 28 30 30 31 31 32
31 30 29 29 29 28 27 26 24 22 24 26 29 31 31 30 29 30 31 30 30 29 28 28 27 26 27 29 30 30 29 27 24 24 26 27 25 23 21 20 19 18 18 17 17 17 18 20 22 24 25 25 27 28 28 27 27 27 27 27 27 27 28
25 25 25 25 25 25 25 25 24 22 22 22 24 26 27 27 26 27 28 29 29 29 29 28 28 28 27 28 29 30 30 30 28 27 28 29 29 28 28 27 26 26 26 25 24 22 22 24 25 26 27 27 28 29 30 31 31 31 31 30 30 29 29
23 23 23 23 23 23 24 24 25 24 23 23 24 25 26 26 26 26 27 27 28 29 29 29 28 28 28 28 29 29 29 29 30 31 32 33 34 34 34 33 32 32 31 31 30 28 27 27 27 28 29 30 30 31 32 32 32 32 33 33 33 33 32
23 23 23 23 23 24 24 25 26 26 26 25 25 26 26 27 27 27 28 28 28 29 30 30 30 30 29 29 29 30 30 29 29 31 33 35 36 36 36 34 33 32 31 31 31 30 30 29 29 28 29 31 32 34 35 35 34 35 35 36 36 36 35
22 22 23 23 24 25 25 26 26 27 28 28 27 27 27 28 29 29 29 29 30 30 31 32 32 32 32 32 31 31 31 31 31 31 31 33 35 35 35 34 34 33 32 31 31 31 31 32 32 32 31 33 34 35 36 37 38 38 38 39 39 39 38
21 22 22 23 24 25 26 26 27 28 29 29 29 29 29 29 30 31 32 32 32 33 34 34 34 35 35 35 35 34 34 34 34 34 33 33 34 35 35 34 34 35 35 35 35 34 34 35 36 36 36 37 37 37 38 39 40 41 41 41 41 41 41
21 21 21 22 23 24 25 26 27 29 29 30 30 31 31 31 31 32 33 35 35 36 37 37 37 37 37 38 38 38 38 37 37 37 37 37 36 36 36 36 36 36 37 38 38 38 38 38 39 39 40 40 41 41 41 41 42 43 43 43 43 43 42
20 20 20 21 22 23 24 25 27 28 29 30 30 31 32 32 32 32 33 35 37 38 39 39 40 40 41 41 41 41 41 41 40 40 40 40 40 39 39 39 39 39 40 40 41 42 42 42 42 42 42 43 43 44 44 44 44 45 45 45 44 44 44
Wind_Direction
207 207 204 207 212 215 218 218 214 207 206 214 219 214 207 205 206 205 203 203 204 207 208 205 202 201 198 196 197 199 202 205 208 209 208 205 203 203 205 205 203 202 201 201 201 202 203 200 198 198 194 191 192 191 189 187 187 192 199 202 202 207 212
204 209 206 208 212 215 216 217 216 211 205 210 218 218 210 205 204 204 203 203 204 206 209 208 206 206 205 202 202 203 205 206 209 212 213 211 210 210 211 211 209 208 206 205 204 204 207 206 204 204 200 196 196 197 196 193 191 194 198 202 204 208 211
191 201 208 212 213 214 215 215 216 215 208 207 215 219 215 209 204 203 202 201 202 204 207 210 211 211 211 208 207 207 208 208 210 211 213 214 214 213 215 214 212 211 209 208 208 207 210 212 211 211 212 209 208 207 205 203 202 202 205 206 206 209 209
198 202 211 214 213 214 216 215 214 215 211 208 211 216 216 213 208 204 202 201 201 203 205 209 211 212 213 212 211 211 211 211 212 212 212 215 218 218 220 219 215 213 213 212 211 210 213 214 215 217 220 221 220 218 215 212 209 209 211 214 215 216 214
209 211 216 218 214 212 215 215 213 212 212 210 211 214 217 217 213 208 204 202 201 202 206 209 212 213 214 215 215 215 215 215 216 217 214 214 217 219 222 222 218 215 215 215 214 214 216 218 219 219 222 225 225 226 225 223 220 218 216 218 219 221 223
220 217 217 219 216 210 212 213 211 211 211 211 213 214 216 218 217 214 209 205 204 204 207 211 213 213 215 218 219 220 220 219 219 220 218 216 216 218 221 222 221 221 220 218 217 217 218 220 222 222 223 225 226 227 228 228 230 230 226 223 221 223 226
238 232 225 223 216 208 209 209 208 209 210 211 214 216 217 217 217 217 214 209 208 208 209 211 214 214 214 216 218 220 222 222 221 220 219 218 217 220 221 221 222 224 224 224 220 218 218 219 221 224 225 226 226 227 227 225 228 231 231 231 229 227 228
236 240 236 228 215 206 208 209 208 209 210 210 213 216 216 216 216 216 216 214 212 211 212 213 215 216 216 215 215 216 219 221 221 220 219 219 220 221 221 220 223 225 226 228 225 223 223 221 219 221 223 225 226 227 226 224 224 225 226 231 234 235 237
224 233 233 227 217 209 209 209 208 211 212 212 215 218 220 219 218 217 217 218 216 214 215 216 218 220 219 219 217 216 217 218 220 221 220 220 221 223 222 221 222 225 228 231 230 229 228 226 223 222 223 226 228 227 228 228 228 227 225 228 231 235 239
223 230 231 223 216 210 205 204 206 212 216 216 215 218 223 227 229 229 226 226 224 220 220 221 223 224 223 223 222 220 219 220 220 221 221 222 223 225 225 224 224 225 228 232 234 234 233 231 230 229 228 229 230 229 230 232 235 236 235 233 233 236 239
234 236 237 224 212 209 207 206 209 213 217 219 216 214 216 220 227 232 233 233 234 232 230 230 231 232 230 229 227 224 223 222 222 222 223 224 226 227 227 227 227 227 228 230 233 236 236 236 235 235 235 234 233 231 231 233 237 240 241 241 241 240 242
244 243 243 232 215 212 216 219 219 217 218 219 218 215 214 214 216 222 226 229 230 230 230 232 234 236 236 235 235 232 228 225 223 223 224 226 227 229 229 229 230 232 233 232 232 234 236 237 238 238 238 238 237 235 233 233 236 239 241 243 244 244 244
248 247 247 242 231 222 220 222 224 225 224 223 222 220 219 217 216 219 225 226 225 224 224 226 230 234 236 236 236 237 235 233 229 226 226 226 228 230 231 232 232 234 236 235 234 234 235 236 238 238 239 239 239 239 237 236 236 238 241 243 245 247 247
252 251 248 248 248 241 231 225 225 227 231 233 231 226 223 221 218 219 225 228 227 225 224 225 227 232 235 236 237 239 238 237 236 233 230 229 230 231 232 233 234 235 236 237 237 236 236 236 237 238 239 238 238 239 240 240 240 240 240 242 244 246 248
255 255 252 252 256 254 249 241 233 231 236 242 242 236 230 228 224 222 223 226 228 228 229 230 229 230 233 236 238 241 239 237 236 235 234 234 234 235 235 234 235 235 236 237 238 238 237 237 237 238 240 239 238 238 239 240 242 243 243 243 243 244 246
254 257 258 258 259 259 259 256 246 238 243 253 257 254 245 238 234 231 228 228 229 230 232 236 237 237 237 236 235 237 238 237 235 233 233 235 236 238 240 240 238 237 237 237 238 239 239 239 239 238 239 240 240 239 237 238 240 243 244 245 245 246 248
252 256 261 264 264 262 259 258 252 248 251 259 265 265 260 248 242 241 237 231 230 232 233 238 241 241 241 240 237 236 236 236 237 234 230 231 234 237 240 242 243 244 243 243 242 242 242 242 244 244 242 241 241 240 240 239 240 241 244 246 247 248 250
251 256 262 268 269 265 258 255 252 249 252 259 264 264 262 255 251 250 245 237 234 235 235 239 242 242 242 243 242 241 238 234 236 236 231 228 230 233 236 238 240 242 244 244 244 243 243 242 243 246 247 246 244 243 243 244 244 245 246 249 251 251 251
250 255 262 268 272 270 264 259 257 253 251 255 260 261 259 257 255 255 254 249 245 242 241 243 245 244 243 243 243 244 241 236 234 235 233 230 229 229 232 234 235 236 238 239 240 242 243 243 242 243 245 247 248 247 247 248 249 250 250 250 251 252 252
249 252 258 264 270 273 271 267 266 263 260 259 261 262 260 257 256 257 259 258 255 252 250 252 254 251 247 243 241 241 242 240 237 235 234 235 234 233 233 233 233 234 235 234 235 238 241 244 245 244 243 244 246 246 246 248 250 251 252 251 251 251 251
253 251 254 260 265 270 273 272 270 269 269 268 267 265 263 260 259 260 261 259 257 256 254 256 260 260 255 249 243 240 240 240 239 237 234 234 235 237 238 236 234 233 234 234 232 233 236 242 247 248 245 242 243 244 245 245 246 248 249 250 252 253 253
260 256 256 260 265 268 271 273 273 271 272 274 274 271 267 263 257 256 260 258 253 254 256 259 261 262 260 253 245 238 237 237 237 237 237 236 234 233 237 239 238 235 236 236 233 231 234 239 245 249 247 241 239 242 245 246 246 246 247 248 250 252 253
263 262 260 263 266 268 268 269 271 271 270 271 274 274 271 264 254 255 266 274 263 257 260 263 262 262 261 255 245 237 234 234 232 231 235 237 235 232 234 238 240 238 236 236 236 234 234 233 234 243 248 246 241 240 243 246 247 247 247 247 248 250 251
261 263 263 264 266 268 267 265 266 267 268 268 270 272 272 268 261 260 267 273 268 262 263 267 266 262 259 258 251 240 232 231 230 229 230 233 232 231 232 234 237 237 236 236 236 235 234 232 230 235 243 247 244 241 242 244 247 248 248 248 248 248 249
261 262 263 263 265 267 267 266 264 264 265 265 266 269 271 271 269 267 267 269 268 266 267 271 274 270 262 260 255 243 232 231 230 227 227 229 229 229 231 231 233 233 234 236 236 234 234 235 233 234 238 242 242 242 241 242 244 246 247 248 248 247 247
262 264 266 266 266 267 268 268 266 266 266 265 265 266 269 271 272 271 269 269 270 271 271 270 271 276 276 266 252 241 237 239 238 233 230 230 230 230 231 232 232 233 234 238 239 237 235 236 236 237 238 240 242 243 243 243 244 246 246 247 248 249 250
267 269 271 271 269 269 269 268 267 266 267 267 266 264 265 268 271 272 269 268 269 270 271 269 267 270 274 269 257 248 243 243 244 239 234 233 232 230 230 231 232 233 235 236 236 237 238 238 238 239 240 243 246 247 247 246 247 248 248 249 251 253 254
270 271 272 271 270 269 270 269 266 264 265 267 268 267 265 266 268 269 269 268 268 268 268 267 265 266 265 261 262 265 260 253 248 238 228 227 229 227 225 227 229 229 230 230 229 231 233 234 235 238 240 244 247 249 249 249 249 249 250 252 255 257 258
269 270 270 269 269 269 269 269 267 264 263 264 266 267 267 267 267 269 269 268 268 268 268 266 263 262 262 260 262 268 270 268 263 252 237 229 228 228 225 226 228 229 229 228 229 230 231 231 232 233 235 238 241 242 244 246 247 247 249 251 254 257 259
267 267 266 266 267 267 267 268 267 264 262 262 262 264 266 266 267 269 270 270 269 269 269 268 266 263 262 263 265 268 271 270 265 259 249 240 235 235 234 231 231 232 231 230 231 235 239 243 244 241 238 239 241 243 244 245 246 247 247 249 252 254 256
262 263 262 262 263 265 266 267 266 264 261 260 260 260 261 263 264 266 268 269 269 268 268 268 267 265 264 264 265 267 269 268 263 256 250 245 244 246 246 246 247 249 250 251 250 247 244 247 252 253 249 247 249 251 253 255 256 256 254 253 254 255 256
255 256 257 258 259 261 263 263 263 261 259 257 257 258 258 259 260 262 264 266 267 267 267 266 266 266 264 264 265 265 266 265 261 255 251 250 252 256 259 261 264 266 267 268 267 263 257 253 254 255 254 253 254 256 258 260 261 261 261 259 258 258 257
246 248 250 252 253 254 256 257 257 256 254 252 253 255 257 258 257 258 259 261 262 263 265 265 265 265 265 263 263 264 264 263 261 259 257 258 261 266 269 270 272 272 273 273 272 270 266 262 258 255 254 254 255 256 257 259 260 261 262 262 261 260 258
242 244 246 248 249 250 250 252 253 254 253 250 249 251 253 255 256 256 257 258 258 259 260 262 262 263 264 264 263 263 263 263 262 261 260 261 264 268 271 273 273 273 273 274 273 272 270 267 263 258 255 254 254 255 256 257 258 259 259 260 260 259 257
242 243 244 246 248 249 250 251 252 254 254 253 251 249 250 252 255 256 255 256 256 257 257 259 260 261 261 262 262 262 263 264 264 263 262 262 263 265 268 270 271 272 271 271 270 270 268 267 265 261 257 255 254 254 255 257 259 259 259 259 260 259 259
243 243 244 245 246 248 250 252 253 254 255 256 255 253 251 250 252 255 255 255 255 257 257 258 258 259 260 261 261 261 261 262 263 263 263 263 263 264 265 266 267 268 269 268 267 266 264 263 262 261 260 258 257 256 255 256 258 259 260 261 261 261 261
244 245 245 246 247 248 249 251 253 254 255 256 257 258 256 254 252 252 254 255 255 256 256 257 257 257 258 259 260 261 260 260 261 262 262 262 261 262 263 263 263 264 265 266 266 265 264 262 261 260 259 259 258 258 257 256 256 257 258 259 260 260 260
249 249 250 250 250 251 252 252 254 255 256 257 257 258 259 259 257 254 253 253 254 255 256 256 257 256 256 256 257 258 259 259 259 259 259 260 259 259 259 260 260 261 262 263 263 264 263 262 261 260 260 259 258 258 257 256 255 256 256 257 257 258 258
Height
5884 5886 5888 5890 5892 5894 5896 5898 5900 5901 5902 5904 5905 5906 5907 5908 5910 5911 5912 5914 5915 5916 5917 5918 5919 5920 5921 5922 5923 5924 5925 5926 5927 5927 5928 5929 5929 5930 5931 5932 5933 5933 5934 5935 5935 5936 5937 5937 5938 5938 5939 5939 5940 5940 5940 5941 5941 5942 5942 5943 5943 5944 5944
5883 5885 5886 5887 5889 5891 5893 5896 5898 5899 5901 5903 5904 5905 5906 5907 5909 5910 5911 5912 5913 5915 5916 5916 5918 5919 5920 5922 5923 5924 5924 5925 5926 5926 5927 5928 5929 5930 5931 5932 5932 5933 5934 5935 5935 5936 5937 5937 5938 5938 5939 5939 5940 5940 5940 5940 5941 5941 5942 5943 5943 5944 5944
5881 5883 5884 5886 5887 5889 5891 5893 5895 5897 5899 5901 5902 5904 5905 5906 5907 5908 5909 5910 5911 5913 5914 5915 5916 5918 5919 5921 5922 5923 5924 5924 5925 5926 5926 5927 5928 5929 5930 5931 5932 5932 5933 5934 5934 5935 5936 5937 5937 5938 5938 5939 5939 5939 5940 5940 5940 5941 5942 5942 5943 5943 5944
5878 5881 5882 5884 5885 5886 5888 5889 5892 5894 5896 5898 5900 5902 5903 5904 5905 5906 5907 5908 5910 5911 5912 5914 5915 5916 5918 5920 5920 5921 5922 5923 5924 5925 5925 5926 5927 5928 5929 5930 5931 5932 5932 5933 5933 5934 5935 5936 5936 5937 5937 5938 5939 5939 5939 5940 5940 5940 5941 5941 5942 5942 5943
5877 5878 5880 5881 5883 5884 5884 5886 5888 5891 5893 5895 5897 5900 5901 5902 5903 5904 5905 5907 5908 5909 5911 5912 5913 5915 5917 5918 5919 5920 5921 5922 5922 5923 5924 5925 5926 5927 5928 5929 5930 5930 5931 5932 5932 5933 5934 5934 5935 5936 5936 5937 5938 5938 5939 5939 5939 5940 5940 5941 5941 5942 5942
5876 5876 5877 5878 5879 5881 5882 5883 5885 5888 5890 5892 5894 5896 5898 5899 5901 5902 5904 5905 5906 5908 5909 5911 5913 5914 5916 5917 5918 5919 5920 5921 5921 5922 5923 5924 5925 5926 5927 5928 5929 5929 5930 5930 5931 5931 5932 5933 5934 5934 5935 5936 5937 5937 5938 5938 5939 5939 5940 5940 5940 5941 5941
5875 5875 5875 5875 5875 5878 5880 5880 5881 5884 5886 5888 5890 5892 5894 5897 5899 5900 5902 5904 5905 5906 5908 5910 5911 5912 5914 5915 5916 5917 5918 5919 5920 5921 5922 5923 5924 5925 5925 5927 5927 5928 5929 5929 5929 5930 5930 5931 5932 5933 5934 5935 5935 5936 5937 5937 5938 5938 5939 5939 5939 5940 5940
5872 5873 5874 5873 5873 5874 5876 5877 5879 5881 5883 5885 5886 5888 5891 5894 5896 5898 5900 5902 5903 5905 5907 5908 5909 5910 5911 5912 5914 5915 5916 5917 5918 5919 5920 5921 5922 5923 5924 5925 5926 5927 5927 5928 5928 5929 5929 5930 5930 5931 5932 5933 5934 5935 5936 5936 5937 5937 5938 5938 5939 5939 5939
5869 5870 5871 5871 5871 5871 5873 5875 5877 5880 5882 5884 5886 5888 5890 5892 5894 5897 5898 5900 5901 5903 5905 5906 5907 5908 5909 5910 5911 5912 5913 5915 5916 5918 5919 5920 5921 5922 5923 5924 5924 5925 5926 5927 5927 5928 5928 5929 5929 5930 5931 5932 5933 5934 5934 5935 5936 5936 5937 5937 5938 5938 5938
5866 5867 5868 5869 5869 5870 5872 5875 5877 5879 5882 5884 5886 5888 5891 5893 5895 5897 5898 5899 5901 5902 5903 5904 5905 5906 5907 5908 5909 5910 5912 5913 5914 5916 5917 5918 5919 5920 5921 5922 5923 5924 5924 5925 5926 5926 5927 5928 5928 5929 5929 5930 5931 5932 5933 5934 5934 5935 5936 5936 5936 5937 5937
5863 5864 5865 5866 5868 5870 5872 5874 5876 5878 5880 5882 5884 5885 5887 5889 5891 5893 5896 5899 5901 5902 5903 5904 5904 5905 5906 5906 5907 5908 5910 5911 5912 5914 5915 5916 5917 5918 5918 5919 5920 5921 5922 5923 5924 5925 5925 5926 5927 5927 5928 5929 5929 5930 5931 5932 5933 5933 5934 5935 5935 5935 5936
5862 5862 5862 5864 5866 5868 5870 5873 5874 5876 5878 5880 5881 5883 5884 5885 5886 5888 5891 5893 5897 5898 5899 5901 5903 5903 5903 5904 5905 5906 5907 5908 5909 5911 5911 5913 5913 5914 5916 5917 5918 5919 5920 5921 5921 5922 5923 5924 5924 5925 5926 5927 5928 5929 5929 5930 5931 5932 5932 5933 5933 5934 5934
5861 5861 5861 5862 5864 5866 5868 5870 5872 5873 5874 5876 5878 5880 5881 5882 5883 5885 5887 5889 5891 5893 5895 5897 5899 5900 5901 5902 5903 5904 5905 5906 5907 5907 5908 5909 5909 5911 5912 5914 5915 5916 5917 5918 5919 5920 5920 5921 5921 5922 5923 5924 5925 5926 5927 5928 5929 5930 5930 5931 5932 5932 5933
5859 5860 5860 5861 5861 5863 5865 5867 5868 5869 5871 5873 5875 5877 5878 5879 5880 5882 5884 5886 5887 5889 5891 5892 5895 5897 5899 5899 5900 5901 5902 5903 5904 5905 5906 5906 5906 5907 5909 5911 5913 5914 5914 5915 5916 5917 5918 5918 5918 5919 5920 5921 5923 5924 5925 5926 5927 5927 5928 5929 5929 5930 5931
5858 5858 5859 5860 5860 5861 5862 5864 5865 5865 5866 5868 5870 5872 5875 5876 5877 5878 5880 5882 5884 5886 5887 5889 5890 5892 5893 5895 5896 5897 5898 5899 5900 5902 5903 5904 5905 5906 5907 5908 5909 5910 5911 5912 5914 5914 5915 5916 5916 5917 5917 5919 5920 5921 5922 5923 5924 5925 5925 5926 5926 5927 5928
5857 5857 5857 5858 5859 5859 5860 5861 5862 5862 5863 5864 5865 5867 5869 5871 5873 5874 5876 5878 5880 5882 5884 5886 5887 5889 5890 5891 5892 5893 5894 5895 5896 5897 5899 5901 5903 5904 5905 5906 5906 5907 5909 5910 5911 5912 5913 5913 5914 5915 5915 5916 5917 5918 5919 5920 5921 5921 5922 5923 5924 5925 5926
5855 5855 5855 5856 5857 5858 5859 5860 5860 5860 5861 5861 5862 5863 5864 5866 5868 5869 5872 5874 5876 5879 5881 5882 5883 5885 5887 5888 5888 5888 5890 5891 5891 5893 5894 5896 5899 5900 5901 5902 5904 5905 5907 5908 5909 5909 5910 5911 5913 5913 5914 5914 5914 5915 5916 5916 5917 5918 5919 5920 5921 5923 5924
5853 5854 5853 5854 5855 5856 5857 5858 5859 5859 5859 5860 5860 5861 5861 5862 5864 5866 5867 5870 5872 5875 5876 5877 5878 5880 5882 5883 5884 5885 5887 5888 5887 5888 5890 5892 5894 5895 5896 5897 5899 5901 5903 5905 5905 5906 5906 5908 5909 5911 5911 5912 5912 5913 5913 5914 5914 5915 5917 5918 5919 5920 5921
5851 5852 5852 5852 5853 5854 5855 5856 5857 5857 5858 5859 5859 5859 5859 5860 5861 5863 5864 5866 5868 5870 5872 5872 5873 5875 5877 5878 5879 5880 5882 5883 5883 5884 5885 5887 5889 5890 5891 5893 5895 5896 5897 5898 5900 5902 5903 5904 5905 5906 5908 5909 5910 5911 5911 5911 5911 5912 5914 5915 5916 5917 5918
5849 5850 5850 5851 5851 5852 5853 5853 5854 5855 5856 5857 5857 5858 5858 5858 5859 5860 5861 5862 5865 5867 5868 5869 5869 5870 5871 5872 5873 5874 5876 5877 5880 5882 5883 5885 5886 5886 5887 5889 5891 5892 5892 5893 5895 5897 5898 5900 5901 5903 5903 5905 5906 5907 5907 5907 5908 5908 5910 5911 5912 5913 5914
5846 5848 5848 5849 5849 5850 5851 5851 5852 5853 5854 5854 5855 5855 5856 5857 5858 5858 5859 5860 5861 5863 5864 5865 5865 5865 5866 5866 5867 5868 5870 5872 5875 5878 5880 5882 5883 5884 5884 5885 5887 5888 5888 5890 5891 5892 5893 5895 5897 5899 5900 5901 5902 5902 5903 5903 5903 5904 5905 5907 5908 5909 5911
5843 5845 5846 5846 5847 5848 5848 5849 5850 5851 5852 5853 5853 5853 5854 5855 5855 5856 5856 5856 5858 5859 5860 5862 5862 5862 5862 5861 5861 5862 5863 5866 5870 5873 5875 5877 5879 5881 5881 5881 5882 5884 5885 5886 5887 5887 5887 5889 5893 5896 5897 5897 5898 5898 5899 5899 5899 5900 5901 5902 5904 5906 5907
5840 5841 5843 5844 5845 5845 5846 5846 5847 5848 5849 5851 5852 5852 5852 5853 5853 5852 5851 5851 5853 5855 5857 5858 5858 5858 5857 5857 5856 5856 5857 5860 5865 5868 5870 5871 5873 5875 5876 5877 5878 5880 5882 5882 5883 5884 5884 5886 5890 5893 5894 5894 5895 5894 5894 5895 5896 5897 5898 5899 5900 5901 5902
5837 5839 5840 5841 5842 5843 5843 5843 5844 5845 5846 5847 5849 5849 5850 5850 5851 5850 5849 5849 5851 5852 5854 5854 5854 5854 5854 5853 5853 5853 5854 5857 5860 5862 5863 5865 5867 5869 5871 5872 5874 5876 5878 5878 5879 5881 5882 5884 5887 5889 5890 5891 5891 5890 5891 5892 5893 5894 5895 5895 5896 5897 5898
5834 5835 5837 5838 5839 5840 5840 5841 5841 5842 5843 5844 5845 5846 5846 5847 5848 5848 5848 5848 5849 5850 5851 5851 5851 5851 5850 5850 5850 5850 5851 5853 5854 5855 5857 5859 5862 5865 5866 5868 5870 5872 5874 5874 5875 5876 5878 5880 5882 5883 5884 5886 5887 5887 5888 5889 5889 5890 5891 5892 5892 5893 5894
5829 5831 5833 5835 5836 5837 5838 5838 5838 5839 5840 5841 5842 5842 5843 5843 5844 5845 5846 5846 5847 5847 5848 5848 5849 5848 5848 5847 5847 5848 5849 5850 5850 5850 5852 5854 5857 5859 5861 5863 5865 5867 5869 5869 5870 5872 5873 5875 5876 5878 5879 5881 5882 5884 5885 5885 5885 5886 5887 5888 5889 5890 5890
5825 5827 5828 5830 5832 5833 5834 5835 5835 5835 5836 5837 5838 5839 5839 5840 5840 5842 5843 5843 5844 5844 5845 5846 5846 5846 5846 5846 5845 5845 5846 5847 5847 5848 5849 5850 5852 5854 5856 5858 5860 5862 5864 5864 5866 5867 5868 5870 5872 5874 5875 5877 5878 5879 5880 5881 5881 5882 5883 5884 5885 5886 5887
5821 5822 5823 5825 5827 5829 5830 5831 5831 5832 5832 5833 5834 5835 5836 5837 5837 5838 5840 5841 5841 5841 5842 5843 5844 5844 5844 5844 5844 5843 5844 5845 5845 5846 5847 5848 5849 5851 5853 5855 5856 5858 5859 5860 5861 5863 5863 5865 5867 5869 5871 5872 5873 5874 5875 5876 5877 5878 5879 5880 5881 5882 5883
5817 5818 5819 5820 5821 5823 5825 5826 5827 5828 5829 5830 5831 5832 5833 5833 5833 5834 5836 5837 5838 5838 5839 5840 5841 5841 5841 5842 5842 5842 5842 5843 5844 5845 5845 5846 5846 5848 5849 5850 5852 5853 5854 5856 5857 5859 5860 5862 5864 5865 5867 5868 5868 5869 5870 5871 5872 5873 5874 5875 5876 5877 5878
5814 5814 5815 5815 5816 5818 5820 5822 5823 5824 5825 5826 5827 5828 5829 5830 5830 5830 5831 5832 5833 5835 5836 5836 5837 5838 5838 5839 5839 5840 5840 5841 5843 5844 5844 5844 5845 5845 5846 5847 5848 5849 5850 5851 5853 5855 5857 5859 5861 5862 5863 5864 5864 5865 5866 5866 5867 5868 5869 5870 5871 5872 5873
5810 5810 5811 5812 5812 5814 5815 5817 5819 5820 5822 5822 5823 5824 5825 5826 5827 5827 5827 5827 5828 5830 5831 5832 5833 5834 5835 5836 5836 5837 5838 5839 5840 5841 5841 5842 5842 5843 5844 5844 5845 5846 5847 5848 5849 5851 5853 5855 5856 5857 5858 5860 5861 5861 5862 5862 5862 5863 5864 5865 5866 5867 5868
5806 5807 5808 5808 5809 5810 5811 5812 5814 5816 5817 5818 5819 5820 5821 5822 5823 5823 5823 5824 5824 5825 5826 5828 5829 5830 5831 5832 5833 5833 5834 5835 5837 5837 5838 5838 5839 5839 5840 5841 5842 5843 5844 5846 5847 5848 5850 5851 5852 5853 5854 5855 5856 5856 5857 5858 5858 5858 5859 5860 5861 5863 5864
5803 5804 5804 5805 5806 5807 5807 5808 5809 5811 5813 5814 5815 5816 5816 5817 5819 5819 5820 5820 5821 5821 5821 5823 5824 5825 5827 5828 5829 5830 5831 5832 5833 5834 5834 5835 5835 5835 5836 5837 5838 5839 5840 5842 5843 5844 5846 5847 5849 5850 5850 5851 5851 5851 5852 5853 5853 5854 5855 5856 5857 5858 5859
5800 5801 5801 5802 5802 5803 5803 5804 5805 5806 5808 5809 5810 5812 5812 5813 5814 5816 5816 5817 5817 5817 5818 5818 5819 5820 5822 5823 5824 5825 5826 5827 5829 5830 5830 5831 5831 5831 5831 5832 5833 5835 5836 5837 5839 5840 5841 5842 5843 5845 5846 5846 5847 5847 5847 5848 5849 5849 5850 5851 5852 5852 5853
5797 5797 5798 5799 5799 5799 5800 5800 5801 5802 5803 5804 5806 5807 5808 5809 5810 5811 5812 5813 5813 5813 5814 5814 5815 5816 5817 5818 5819 5820 5821 5822 5824 5825 5826 5827 5827 5828 5828 5828 5829 5830 5831 5833 5834 5835 5836 5836 5837 5839 5840 5841 5842 5842 5843 5843 5843 5844 5845 5845 5846 5847 5848
5793 5794 5795 5796 5796 5796 5797 5797 5797 5798 5798 5799 5800 5802 5804 5805 5806 5806 5807 5808 5809 5809 5809 5810 5810 5811 5812 5813 5814 5815 5816 5817 5818 5819 5821 5822 5823 5824 5824 5825 5825 5826 5827 5828 5829 5830 5831 5832 5832 5833 5834 5835 5836 5837 5838 5839 5839 5839 5840 5840 5841 5842 5843
5790 5791 5792 5792 5793 5793 5793 5794 5794 5794 5794 5795 5796 5797 5798 5800 5801 5802 5802 5803 5803 5804 5805 5805 5806 5806 5807 5808 5808 5810 5811 5812 5813 5814 5815 5816 5817 5818 5819 5820 5821 5822 5822 5823 5824 5825 5826 5826 5827 5827 5828 5829 5830 5831 5832 5833 5834 5835 5835 5836 5836 5837 5838
5788 5789 5789 5790 5790 5790 5791 5791 5791 5791 5791 5791 5792 5792 5793 5794 5796 5797 5798 5798 5798 5799 5799 5800 5800 5801 5802 5803 5803 5804 5805 5806 5807 5808 5809 5810 5811 5812 5813 5814 5815 5816 5817 5818 5818 5819 5819 5820 5821 5821 5822 5823 5824 5824 5825 5827 5828 5828 5829 5830 5831 5831 5832